Fremont, MI

3:44 AM EST on January 19, 2018 (GMT -0500)
Fremont

Weather History for KFFX - July, 2013

Change the Weather History Date:

Tuesday, July 23, 2013

  Actual Average (KMKG) Record (KMKG)
Temperature  
Mean Temperature 64 °F -  
Max Temperature 75 °F 80 °F 94 °F (1965)
Min Temperature 52 °F 61 °F 42 °F (1921)
Degree Days  
Heating Degree Days 1    
Growing Degree Days 14 (Base 50)    
Moisture  
Dew Point 56 °F    
Average Humidity 67    
Maximum Humidity 91    
Minimum Humidity 42    
Precipitation  
Precipitation 0.00 in - - ()
Sea Level Pressure  
Sea Level Pressure 29.79 in    
Wind  
Wind Speed 8 mph (NW)    
Max Wind Speed 23 mph    
Max Gust Speed 29 mph    
Visibility 10 miles    
Events      
Averages and records for this station are not official NWS values.
T = Trace of Precipitation, MM = Missing Value Source: NWS Daily Summary

Daily Weather History Graph

Daily Weather History Graph

Search for Another Location

Airport or City:

Trip Planner

Search our weather history database for the weather conditions in past years. The results will help you decide how hot, cold, wet, or windy it might be!

Date:

Astronomy

Jul. 23, 2013 Rise Set
Actual Time 6:24 AM EDT 9:15 PM EDT
Civil Twilight 5:51 AM EDT 9:49 PM EDT
Nautical Twilight 5:08 AM EDT 10:31 PM EDT
Astronomical Twilight 4:18 AM EDT 11:20 PM EDT
Moon 9:38 PM EDT (7/23) 7:36 AM EDT (7/23)
Length of Visible Light 15h 58m
Length of Day
14h 51m
Full, 99% of the Moon is Illuminated
Jul 23
Full
Jul 29
Last Quarter
Aug 6
New
Aug 14
First Quarter
Aug 20
Full

Hourly Weather History & Observations

Time (EDT) Temp. Dew Point Humidity Pressure Visibility Wind Dir Wind Speed Gust Speed Precip Events Conditions
12:15 AM 71.1 °F 65.5 °F 82% 29.75 in 10.0 mi Calm Calm - N/A   Clear
12:34 AM 70.7 °F 65.7 °F 84% 29.75 in 10.0 mi SSE 4.6 mph - N/A   Clear
12:55 AM 71.1 °F 66.0 °F 84% 29.73 in 10.0 mi SE 5.8 mph - N/A   Scattered Clouds
1:14 AM 70.9 °F 66.4 °F 86% 29.72 in 10.0 mi SSE 8.1 mph - N/A   Scattered Clouds
1:35 AM 71.8 °F 66.6 °F 84% 29.69 in 10.0 mi South 11.5 mph 16.1 mph N/A   Scattered Clouds
1:54 AM 72.5 °F 66.9 °F 83% 29.70 in 10.0 mi South 11.5 mph 18.4 mph N/A   Clear
2:15 AM 72.9 °F 67.1 °F 82% 29.71 in 10.0 mi South 5.8 mph - N/A   Clear
2:32 AM 72.5 °F 67.1 °F 83% 29.70 in 10.0 mi South 5.8 mph - N/A   Clear
2:54 AM 72.1 °F 67.5 °F 85% 29.69 in 10.0 mi South 4.6 mph - N/A   Clear
3:15 AM 71.2 °F 67.6 °F 88% 29.68 in 10.0 mi South 4.6 mph - N/A   Clear
3:34 AM 70.7 °F 68.0 °F 91% 29.68 in 10.0 mi Calm Calm - N/A   Clear
3:55 AM 70.9 °F 68.2 °F 91% 29.69 in 10.0 mi West 3.5 mph - N/A   Mostly Cloudy
4:14 AM 72.5 °F 68.7 °F 88% 29.68 in 10.0 mi WSW 3.5 mph - N/A   Overcast
4:34 AM 73.2 °F 66.9 °F 81% 29.67 in 10.0 mi SSW 5.8 mph - N/A   Scattered Clouds
4:55 AM 73.4 °F 66.2 °F 78% 29.67 in 10.0 mi WSW 5.8 mph - N/A   Scattered Clouds
5:14 AM 73.4 °F 66.9 °F 80% 29.67 in 10.0 mi WSW 4.6 mph - N/A   Mostly Cloudy
5:35 AM 73.4 °F 67.1 °F 81% 29.68 in 10.0 mi WSW 6.9 mph - N/A   Mostly Cloudy
5:55 AM 72.9 °F 67.5 °F 83% 29.68 in 10.0 mi West 5.8 mph - N/A   Clear
6:14 AM 72.5 °F 68.0 °F 86% 29.69 in 10.0 mi WNW 5.8 mph - N/A   Clear
6:35 AM 71.6 °F 68.2 °F 89% 29.70 in 10.0 mi NW 5.8 mph - N/A   Clear
6:54 AM 71.1 °F 68.0 °F 90% 29.70 in 10.0 mi NW 6.9 mph - N/A   Clear
7:15 AM 70.2 °F 65.3 °F 85% 29.70 in 10.0 mi NW 11.5 mph - N/A   Clear
7:34 AM 69.3 °F 62.8 °F 80% 29.71 in 10.0 mi NW 11.5 mph - N/A   Clear
7:54 AM 68.9 °F 62.6 °F 80% 29.72 in 10.0 mi NNW 6.9 mph - N/A   Mostly Cloudy
8:15 AM 69.4 °F 63.0 °F 80% 29.72 in 10.0 mi NNW 8.1 mph - N/A   Overcast
8:34 AM 69.8 °F 62.6 °F 78% 29.72 in 10.0 mi NNW 8.1 mph - N/A   Overcast
8:55 AM 70.2 °F 61.7 °F 74% 29.73 in 10.0 mi NNW 8.1 mph - N/A   Overcast
9:14 AM 70.7 °F 58.6 °F 66% 29.73 in 10.0 mi North 6.9 mph - N/A   Overcast
9:34 AM 71.8 °F 59.4 °F 65% 29.73 in 10.0 mi NW 8.1 mph - N/A   Mostly Cloudy
9:55 AM 72.0 °F 60.1 °F 66% 29.73 in 10.0 mi NW 6.9 mph - N/A   Overcast
10:14 AM 73.8 °F 60.3 °F 63% 29.73 in 10.0 mi NW 6.9 mph - N/A   Scattered Clouds
10:34 AM 73.8 °F 61.7 °F 66% 29.75 in 10.0 mi WNW 11.5 mph - N/A   Mostly Cloudy
10:55 AM 74.3 °F 60.1 °F 61% 29.77 in 10.0 mi WNW 10.4 mph - N/A   Mostly Cloudy
11:14 AM 74.5 °F 58.6 °F 58% 29.77 in 10.0 mi WNW 11.5 mph - N/A   Overcast
11:34 AM 73.6 °F 59.2 °F 61% 29.78 in 10.0 mi NW 10.4 mph - N/A   Overcast
11:54 AM 74.5 °F 58.1 °F 57% 29.78 in 10.0 mi NW 11.5 mph 16.1 mph N/A   Overcast
12:14 PM 73.9 °F 57.6 °F 56% 29.78 in 10.0 mi WNW 10.4 mph 19.6 mph N/A   Overcast
12:35 PM 73.8 °F 56.5 °F 55% 29.78 in 10.0 mi WNW 12.7 mph 16.1 mph N/A   Overcast
12:54 PM 73.8 °F 55.4 °F 53% 29.79 in 10.0 mi NNW 15.0 mph 20.7 mph N/A   Overcast
1:15 PM 75.7 °F 53.2 °F 45% 29.80 in 10.0 mi WNW 12.7 mph 21.9 mph N/A   Mostly Cloudy
1:34 PM 73.8 °F 52.9 °F 48% 29.80 in 10.0 mi NW 12.7 mph 18.4 mph N/A   Mostly Cloudy
1:54 PM 75.4 °F 52.3 °F 44% 29.81 in 10.0 mi NW 19.6 mph 23.0 mph N/A   Mostly Cloudy
2:15 PM 73.6 °F 52.2 °F 47% 29.81 in 10.0 mi NW 16.1 mph 23.0 mph N/A   Mostly Cloudy
2:34 PM 73.4 °F 51.6 °F 46% 29.81 in 10.0 mi WNW 20.7 mph 26.5 mph N/A   Mostly Cloudy
2:54 PM 72.3 °F 50.2 °F 46% 29.82 in 10.0 mi West 18.4 mph 26.5 mph N/A   Scattered Clouds
3:14 PM 69.8 °F 49.3 °F 48% 29.83 in 10.0 mi WNW 16.1 mph 27.6 mph N/A   Mostly Cloudy
3:35 PM 70.7 °F 48.6 °F 45% 29.83 in 10.0 mi NW 15.0 mph 24.2 mph N/A   Mostly Cloudy
3:54 PM 72.1 °F 48.2 °F 43% 29.83 in 10.0 mi NW 18.4 mph 25.3 mph N/A   Mostly Cloudy
4:15 PM 71.4 °F 47.1 °F 42% 29.84 in 10.0 mi NNW 16.1 mph 27.6 mph N/A   Mostly Cloudy
4:34 PM 69.3 °F 48.0 °F 47% 29.85 in 10.0 mi NNW 23.0 mph 27.6 mph N/A   Mostly Cloudy
4:55 PM 64.8 °F 50.2 °F 59% 29.86 in 10.0 mi NW 17.3 mph 26.5 mph N/A   Overcast
5:15 PM 65.3 °F 49.3 °F 56% 29.85 in 10.0 mi NW 13.8 mph 23.0 mph N/A   Overcast
5:34 PM 66.2 °F 48.4 °F 53% 29.85 in 10.0 mi NW 15.0 mph 23.0 mph N/A   Mostly Cloudy
5:55 PM 67.3 °F 47.1 °F 48% 29.86 in 10.0 mi WNW 17.3 mph 24.2 mph N/A   Scattered Clouds
6:14 PM 66.6 °F 46.9 °F 49% 29.86 in 10.0 mi NW 18.4 mph 24.2 mph N/A   Scattered Clouds
6:35 PM 65.5 °F 47.1 °F 51% 29.86 in 10.0 mi NW 16.1 mph 26.5 mph N/A   Clear
6:54 PM 64.9 °F 46.8 °F 52% 29.87 in 10.0 mi NNW 19.6 mph 28.8 mph N/A   Clear
7:14 PM 64.4 °F 46.8 °F 53% 29.87 in 10.0 mi NNW 15.0 mph 21.9 mph N/A   Scattered Clouds
7:35 PM 64.0 °F 45.5 °F 51% 29.87 in 10.0 mi NNW 19.6 mph 27.6 mph N/A   Scattered Clouds
7:54 PM 62.6 °F 45.0 °F 52% 29.88 in 10.0 mi NNW 18.4 mph 24.2 mph N/A   Clear
8:15 PM 62.1 °F 45.5 °F 55% 29.88 in 10.0 mi NNW 10.4 mph 21.9 mph N/A   Clear
8:34 PM 61.3 °F 45.7 °F 56% 29.89 in 10.0 mi NNW 11.5 mph 17.3 mph N/A   Clear
8:54 PM 60.4 °F 45.5 °F 58% 29.89 in 10.0 mi NNW 12.7 mph - N/A   Clear
9:15 PM 59.5 °F 45.0 °F 59% 29.90 in 10.0 mi NNW 9.2 mph 19.6 mph N/A   Clear
9:34 PM 58.6 °F 45.0 °F 60% 29.91 in 10.0 mi NNW 10.4 mph 17.3 mph N/A   Clear
9:54 PM 57.6 °F 45.7 °F 65% 29.92 in 10.0 mi NNW 8.1 mph - N/A   Clear
10:15 PM 56.8 °F 45.7 °F 66% 29.93 in 10.0 mi NNW 6.9 mph - N/A   Clear
10:34 PM 55.0 °F 46.0 °F 72% 29.95 in 10.0 mi NNW 5.8 mph - N/A   Clear
10:55 PM 55.4 °F 45.9 °F 70% 29.95 in 10.0 mi NNW 8.1 mph - N/A   Clear
11:14 PM 55.4 °F 45.1 °F 68% 29.96 in 10.0 mi NNW 4.6 mph - N/A   Clear
11:34 PM 53.1 °F 45.5 °F 75% 29.97 in 10.0 mi NNW 4.6 mph - N/A   Clear
11:55 PM 52.7 °F 45.9 °F 78% 29.97 in 10.0 mi Calm Calm - N/A   Clear